Prairie Du Chien, WI

1:50 PM CDT on March 28, 2017 (GMT -0500)
Prairie Du Chien Municipal

Weather History for KPDC - April, 2013

Change the Weather History Date:

Thursday, April 11, 2013

  Actual Average Record
Temperature  
Mean Temperature 38 °F -  
Max Temperature 41 °F 58 °F 85 °F (1977)
Min Temperature 36 °F 34 °F 14 °F (1973)
Degree Days  
Heating Degree Days 26    
Moisture  
Dew Point 36 °F    
Average Humidity 90    
Maximum Humidity 94    
Minimum Humidity 84    
Precipitation  
Precipitation 0.25 in - - ()
Sea Level Pressure  
Sea Level Pressure 29.65 in    
Wind  
Wind Speed 9 mph (ENE)    
Max Wind Speed 18 mph    
Max Gust Speed 26 mph    
Visibility 4 miles    
Events Rain , Snow    
Averages and records for this station are not official NWS values.
T = Trace of Precipitation, MM = Missing Value Source: NWS Daily Summary

Daily Weather History Graph

Daily Weather History Graph

Search for Another Location

Airport or City:

Trip Planner

Search our weather history database for the weather conditions in past years. The results will help you decide how hot, cold, wet, or windy it might be!

Date:

Astronomy

Apr. 11, 2013 Rise Set
Actual Time 6:28 AM CDT 7:42 PM CDT
Civil Twilight 5:59 AM CDT 8:12 PM CDT
Nautical Twilight 5:24 AM CDT 8:47 PM CDT
Astronomical Twilight 4:47 AM CDT 9:24 PM CDT
Moon 6:58 AM CDT (4/11) 9:20 PM CDT (4/11)
Length of Visible Light 14h 12m
Length of Day
13h 13m
New Moon, 2% of the Moon is Illuminated
Apr 11
New Moon
Apr 18
First Quarter
Apr 25
Full
May 2
Last Quarter
May 9
New

Hourly Weather History & Observations

Time (CDT) Temp. Windchill Dew Point Humidity Pressure Visibility Wind Dir Wind Speed Gust Speed Precip Events Conditions
12:15 AM 36.9 °F 26.8 °F 32.9 °F 86% 29.76 in 10.0 mi East 18.4 mph 26.5 mph N/A   Overcast
12:35 AM 37.4 °F 31.4 °F 33.1 °F 84% 29.79 in 10.0 mi ENE 8.1 mph - N/A   Overcast
12:55 AM 37.4 °F 30.3 °F 33.4 °F 86% 29.78 in 10.0 mi East 10.4 mph - N/A   Overcast
1:15 AM 37.4 °F 30.3 °F 33.3 °F 85% 29.79 in 10.0 mi ENE 10.4 mph 16.1 mph N/A   Overcast
1:35 AM 37.6 °F 31.0 °F 33.4 °F 85% 29.77 in 10.0 mi ENE 9.2 mph 16.1 mph N/A   Overcast
1:55 AM 37.6 °F 31.6 °F 33.6 °F 86% 29.77 in 10.0 mi ENE 8.1 mph 18.4 mph N/A   Overcast
2:15 AM 37.6 °F 32.3 °F 33.8 °F 86% 29.77 in 7.0 mi ENE 6.9 mph 16.1 mph N/A   Overcast
2:35 AM 37.4 °F 32.8 °F 34.5 °F 89% 29.74 in 2.5 mi NE 5.8 mph - 0.01 in Rain Rain
2:55 AM 37.4 °F 32.1 °F 34.5 °F 89% 29.72 in 5.0 mi NE 6.9 mph - 0.03 in   Drizzle
3:15 AM 37.4 °F 31.4 °F 34.7 °F 90% 29.72 in 3.0 mi ENE 8.1 mph - 0.01 in Rain Light Rain
3:35 AM 37.4 °F 30.8 °F 34.3 °F 89% 29.71 in 10.0 mi ENE 9.2 mph - 0.01 in   Overcast
3:55 AM 37.4 °F 30.8 °F 34.7 °F 90% 29.71 in 4.0 mi ENE 9.2 mph - 0.02 in   Drizzle
4:15 AM 37.4 °F 29.3 °F 34.7 °F 90% 29.68 in 4.0 mi ENE 12.7 mph 17.3 mph 0.01 in Rain Rain
4:35 AM 37.4 °F 30.3 °F 34.3 °F 89% 29.68 in 2.5 mi East 10.4 mph 18.4 mph 0.04 in Rain Light Rain
4:55 AM 37.0 °F 31.6 °F 34.7 °F 91% 29.69 in 5.0 mi East 6.9 mph - 0.06 in Rain Rain
5:15 AM 37.0 °F 29.8 °F 34.2 °F 89% 29.65 in 5.0 mi East 10.4 mph 20.7 mph N/A   Light Drizzle
5:35 AM 36.7 °F 29.9 °F 34.5 °F 92% 29.68 in 2.5 mi East 9.2 mph 19.6 mph 0.01 in Snow Light Snow
5:55 AM 36.7 °F 32.0 °F 34.5 °F 92% 29.68 in 3.0 mi East 5.8 mph - 0.02 in Rain Light Rain
6:15 AM 36.7 °F 34.1 °F 34.7 °F 93% 29.70 in 2.5 mi East 3.5 mph - 0.01 in   Drizzle
6:35 AM 36.5 °F - 34.9 °F 94% 29.70 in 2.5 mi Calm Calm - 0.02 in   Heavy Drizzle
6:55 AM 36.5 °F 32.7 °F 34.9 °F 94% 29.70 in 3.0 mi ENE 4.6 mph - 0.03 in   Drizzle
7:15 AM 36.7 °F 31.2 °F 34.7 °F 93% 29.70 in 4.0 mi East 6.9 mph - 0.01 in   Drizzle
7:35 AM 37.0 °F 31.6 °F 34.7 °F 91% 29.68 in 5.0 mi East 6.9 mph - 0.01 in   Light Drizzle
7:55 AM 37.0 °F 34.5 °F 34.5 °F 91% 29.71 in 10.0 mi East 3.5 mph - 0.01 in   Overcast
8:15 AM 37.0 °F 31.6 °F 34.9 °F 92% 29.69 in 1.8 mi East 6.9 mph - N/A   Drizzle
8:35 AM 37.0 °F 31.6 °F 35.1 °F 93% 29.68 in 1.8 mi East 6.9 mph - N/A   Light Drizzle
8:55 AM 37.4 °F 32.1 °F 34.9 °F 91% 29.68 in 1.8 mi East 6.9 mph - 0.01 in   Light Drizzle
9:15 AM 37.4 °F 32.1 °F 35.2 °F 92% 29.67 in 2.5 mi East 6.9 mph - N/A   Light Drizzle
9:35 AM 37.6 °F 33.1 °F 34.9 °F 90% 29.69 in 3.0 mi ENE 5.8 mph - N/A   Light Drizzle
9:55 AM 37.8 °F 32.5 °F 35.1 °F 90% 29.66 in 4.0 mi ENE 6.9 mph - N/A   Drizzle
10:15 AM 37.8 °F 31.3 °F 35.2 °F 91% 29.67 in 2.5 mi ENE 9.2 mph - N/A   Light Drizzle
10:35 AM 38.1 °F 35.7 °F 35.4 °F 90% 29.69 in 2.0 mi NE 3.5 mph - N/A   Light Drizzle
10:55 AM 38.3 °F 33.2 °F 35.8 °F 91% 29.67 in 2.0 mi NE 6.9 mph - N/A   Overcast
11:15 AM 38.7 °F 32.9 °F 36.5 °F 92% 29.67 in 1.2 mi ENE 8.1 mph - 0.01 in   Overcast
11:35 AM 39.0 °F 32.3 °F 36.5 °F 91% 29.66 in 1.2 mi ENE 10.4 mph - 0.01 in   Overcast
12:15 PM 39.6 °F 34.0 °F 36.9 °F 90% 29.64 in 2.0 mi NE 8.1 mph - N/A   Overcast
12:35 PM 39.6 °F 35.4 °F 36.9 °F 90% 29.65 in 2.5 mi ENE 5.8 mph - N/A   Overcast
12:55 PM 39.7 °F 34.9 °F 37.0 °F 90% 29.64 in 3.0 mi ENE 6.9 mph - N/A   Overcast
1:15 PM 40.3 °F 34.4 °F 37.6 °F 90% 29.62 in 3.0 mi East 9.2 mph - N/A   Overcast
1:35 PM 40.3 °F 33.0 °F 37.6 °F 90% 29.61 in 2.5 mi ENE 12.7 mph 17.3 mph N/A   Overcast
1:55 PM 40.3 °F 34.4 °F 37.8 °F 91% 29.61 in 2.5 mi ENE 9.2 mph - N/A   Overcast
2:15 PM 40.3 °F 33.0 °F 37.4 °F 89% 29.61 in 2.5 mi ENE 12.7 mph 16.1 mph N/A   Overcast
2:35 PM 40.6 °F 35.4 °F 37.6 °F 89% 29.62 in 5.0 mi ENE 8.1 mph - N/A   Overcast
2:55 PM 40.8 °F 35.0 °F 37.9 °F 89% 29.59 in 3.0 mi ENE 9.2 mph - N/A   Overcast
3:15 PM 41.0 °F 36.4 °F 38.3 °F 90% 29.59 in 2.5 mi ENE 6.9 mph - N/A   Overcast
3:35 PM 41.0 °F 35.2 °F 38.1 °F 89% 29.59 in 3.0 mi ENE 9.2 mph - N/A   Overcast
3:55 PM 41.0 °F 34.7 °F 38.3 °F 90% 29.60 in 3.0 mi East 10.4 mph - N/A   Overcast
4:15 PM 41.0 °F 37.1 °F 38.5 °F 91% 29.60 in 2.5 mi East 5.8 mph - N/A   Overcast
4:35 PM 41.0 °F 35.8 °F 39.0 °F 93% 29.61 in 2.0 mi East 8.1 mph - N/A   Overcast
4:55 PM 41.0 °F 35.2 °F 39.2 °F 93% 29.59 in 1.5 mi East 9.2 mph - N/A   Light Drizzle
5:15 PM 41.0 °F 34.3 °F 38.5 °F 91% 29.59 in 3.0 mi East 11.5 mph - N/A   Overcast
5:35 PM 41.0 °F 35.2 °F 38.5 °F 91% 29.59 in 5.0 mi ENE 9.2 mph - N/A   Overcast
5:55 PM 40.8 °F 33.7 °F 38.3 °F 91% 29.58 in 2.5 mi ENE 12.7 mph - N/A   Overcast
6:15 PM 41.0 °F 36.4 °F 37.9 °F 89% 29.56 in 7.0 mi ENE 6.9 mph - N/A   Overcast
6:35 PM 40.5 °F 34.6 °F 37.8 °F 90% 29.56 in 7.0 mi ENE 9.2 mph - N/A   Overcast
6:55 PM 40.1 °F 33.6 °F 37.2 °F 89% 29.56 in 5.0 mi East 10.4 mph - N/A   Light Drizzle
7:15 PM 39.7 °F 33.2 °F 37.4 °F 91% 29.56 in 3.0 mi East 10.4 mph 16.1 mph N/A   Light Drizzle
7:35 PM 39.6 °F 32.5 °F 36.9 °F 90% 29.56 in 4.0 mi East 11.5 mph - N/A Rain Light Rain
7:55 PM 39.4 °F 32.7 °F 36.7 °F 90% 29.56 in 4.0 mi East 10.4 mph 17.3 mph N/A   Light Drizzle
8:15 PM 39.2 °F 33.6 °F 36.5 °F 90% 29.56 in 5.0 mi East 8.1 mph - N/A Rain Light Rain
8:35 PM 39.2 °F 35.0 °F 36.5 °F 90% 29.57 in 5.0 mi East 5.8 mph - 0.02 in Rain Light Rain
8:55 PM 38.8 °F 35.4 °F 36.5 °F 91% 29.57 in 7.0 mi ESE 4.6 mph - 0.02 in Rain Light Rain
9:15 PM 38.5 °F - 36.7 °F 93% 29.57 in 5.0 mi Calm Calm - 0.01 in Rain Rain
9:35 PM 38.5 °F 32.7 °F 36.7 °F 93% 29.56 in 3.0 mi East 8.1 mph - 0.02 in   Light Drizzle
9:55 PM 38.3 °F - 36.5 °F 93% 29.57 in 4.0 mi Calm Calm - 0.02 in   Overcast
10:15 PM 38.1 °F 32.9 °F 36.3 °F 93% 29.58 in 2.5 mi East 6.9 mph - N/A Rain Light Rain
10:35 PM 37.8 °F 34.2 °F 36.1 °F 94% 29.58 in 2.5 mi ENE 4.6 mph - N/A   Drizzle
10:55 PM 37.6 °F 34.0 °F 36.0 °F 94% 29.58 in 2.5 mi East 4.6 mph - N/A   Light Drizzle
11:15 PM 37.6 °F 34.0 °F 35.8 °F 93% 29.58 in 3.0 mi East 4.6 mph - 0.01 in Rain Rain
11:35 PM 37.4 °F 33.8 °F 35.8 °F 94% 29.58 in 5.0 mi East 4.6 mph - 0.02 in Rain Light Rain
11:55 PM 37.2 °F 31.9 °F 34.9 °F 91% 29.58 in 4.0 mi East 6.9 mph - 0.02 in   Light Drizzle